TimePST,TemperatureF,Dew PointF,Humidity,Sea Level PressureIn,VisibilityMPH,Wind Direction,Wind SpeedMPH,Gust SpeedMPH,PrecipitationIn,Events,Conditions,WindDirDegrees,DateUTC
12:55 AM,35.1,33.1,92,30.03,10.0,ESE,3.5,-,N/A,,Scattered Clouds,120,2013-02-20 08:55:00
1:55 AM,36.0,34.0,93,30.04,10.0,ESE,3.5,-,N/A,,Overcast,120,2013-02-20 09:55:00
2:55 AM,37.0,35.1,93,30.05,10.0,ESE,3.5,-,N/A,,Overcast,110,2013-02-20 10:55:00
3:55 AM,37.0,35.1,93,30.04,10.0,ESE,3.5,-,N/A,,Overcast,110,2013-02-20 11:55:00
4:55 AM,37.0,34.0,89,30.05,10.0,Calm,Calm,-,N/A,,Scattered Clouds,0,2013-02-20 12:55:00
5:55 AM,34.0,32.0,92,30.06,10.0,Calm,Calm,-,N/A,,Clear,0,2013-02-20 13:55:00
6:55 AM,35.6,33.8,93,30.06,9.0,ESE,3.5,-,N/A,,Mostly Cloudy,120,2013-02-20 14:55:00
7:55 AM,36.0,35.1,97,30.05,10.0,Calm,Calm,-,N/A,,Overcast,0,2013-02-20 15:55:00
8:55 AM,37.9,37.0,97,30.05,9.0,Calm,Calm,-,0.01,,Mostly Cloudy,0,2013-02-20 16:55:00
9:55 AM,42.1,39.0,89,30.06,10.0,ENE,3.5,-,0.00,,Mostly Cloudy,60,2013-02-20 17:55:00
10:55 AM,45.0,39.0,80,30.05,10.0,South,6.9,-,0.00,Rain,Light Rain,190,2013-02-20 18:55:00
11:55 AM,46.0,39.9,79,30.05,10.0,SSW,11.5,16.1,0.00,,Overcast,200,2013-02-20 19:55:00
12:25 PM,44.6,41.0,87,30.03,2.5,SSW,10.4,-,0.02,Rain,Rain,210,2013-02-20 20:25:00
12:32 PM,44.6,41.0,87,30.03,5.0,SSW,10.4,20.7,0.03,Rain,Light Rain,200,2013-02-20 20:32:00
12:55 PM,44.1,41.0,89,30.02,8.0,SSW,11.5,-,0.03,,Overcast,200,2013-02-20 20:55:00
1:55 PM,44.1,39.9,85,30.00,4.0,SSW,6.9,17.3,0.01,Rain,Light Rain,210,2013-02-20 21:55:00
2:16 PM,44.6,41.0,87,29.99,6.0,SSW,9.2,-,0.01,Rain,Light Rain,200,2013-02-20 22:16:00
2:55 PM,45.0,41.0,86,29.98,5.0,SSW,11.5,17.3,0.03,Rain,Light Rain,210,2013-02-20 22:55:00
3:55 PM,43.0,37.0,80,29.99,9.0,SW,10.4,20.7,0.02,Rain,Light Rain,220,2013-02-20 23:55:00
4:18 PM,42.8,37.4,81,29.97,5.0,SSW,13.8,29.9,0.03,Rain,Light Rain,200,2013-02-21 00:18:00
4:37 PM,42.8,37.4,81,29.97,10.0,SSW,16.1,26.5,0.03,,Overcast,200,2013-02-21 00:37:00
4:55 PM,42.1,37.9,85,29.97,10.0,South,12.7,21.9,0.03,Rain,Light Rain,190,2013-02-21 00:55:00
5:10 PM,42.8,39.2,87,29.97,10.0,South,13.8,21.9,0.01,Rain,Light Rain,180,2013-02-21 01:10:00
5:50 PM,42.8,41.0,93,29.98,6.0,West,9.2,-,0.05,Rain,Light Rain,280,2013-02-21 01:50:00
5:55 PM,43.0,41.0,93,29.98,5.0,NW,6.9,-,0.07,Rain,Rain,310,2013-02-21 01:55:00
6:13 PM,42.8,41.0,93,29.98,4.0,WSW,3.5,-,0.03,Rain,Rain,240,2013-02-21 02:13:00
6:41 PM,42.8,41.0,93,29.99,2.0,WNW,6.9,-,0.07,Rain,Light Rain,300,2013-02-21 02:41:00
6:46 PM,42.8,41.0,93,29.99,3.0,West,5.8,-,0.07,Rain,Light Rain,280,2013-02-21 02:46:00
6:55 PM,44.6,41.0,87,29.99,6.0,West,6.9,-,N/A,Rain,Light Rain,260,2013-02-21 02:55:00
7:55 PM,43.0,39.9,89,30.00,9.0,WNW,13.8,23.0,0.03,,Overcast,300,2013-02-21 03:55:00
8:03 PM,42.8,39.2,87,30.00,10.0,WNW,8.1,-,N/A,,Overcast,290,2013-02-21 04:03:00
8:55 PM,44.6,41.0,87,30.01,3.0,WNW,9.2,-,N/A,Rain,Light Rain,300,2013-02-21 04:55:00
9:55 PM,44.1,39.0,82,30.02,10.0,West,10.4,19.6,0.01,,Overcast,280,2013-02-21 05:55:00
10:55 PM,44.1,39.0,82,30.04,10.0,West,9.2,18.4,0.00,,Overcast,280,2013-02-21 06:55:00
11:34 PM,44.6,39.2,81,30.05,10.0,West,11.5,20.7,N/A,,Overcast,280,2013-02-21 07:34:00
11:55 PM,44.1,39.0,82,30.05,10.0,West,10.4,-,N/A,,Overcast,280,2013-02-21 07:55:00